Location: Libas
(9.8833°N, 125.9833°E)
Time: 21:02:26
(UTC+00:00)

deb Chang Zheng 4 - Pass Details

Date: 27 October 2020
Orbit: 602 x 625 km, 98.6° (Epoch: 25 November)

Event Time Altitude Azimuth Distance (km) Brightness Sun altitude
Rises 19:43:51 0° 18° (NNE) 2,852 7.1 -25.4°
Reaches altitude 10° 19:46:02 10° 23° (NNE) 1,953 6.2 -24.9°
Maximum altitude 19:50:13 58° 102° (ESE) 712 4.1 -23.9°
Drops below altitude 10° 19:54:25 10° 181° (S) 1,969 6.2 -22.9°
Sets 19:56:38 0° 185° (S) 2,878 7.1 -22.3°
